VAXJO current weather conditions

sailwx.info

Wind from 250 at 10 knots

Air temperature 2.0° C
Visibility: greater than 5.4 NM
Dewpoint -0.0° C

Last reported at 2015-Mar-31 03:20 UTC.
Time now 2015-Mar-31 05:28 UTC

Location: N 56°51' E 014°50'.
View on Google Maps.

See reports from other nearby stations

  
Tides and Currents Weather Stations Pressure Air Temp Water Temp Dewpoint Dewpoint Depression Visibility Wind Speed Wind Dir Waves Ship Positions
date/time (UTC)wind fromknots sea level pressurealtimeterstation pressurevisibilityair tempwater tempwave heightnotes
2015-Mar-31 03:20 250 10 5.4 2.0
2015-Mar-31 02:50 240 8 5.4 3.0
2015-Mar-31 02:20 260 8 5.4 3.0
2015-Mar-31 01:50 260 11 5.4 3.0
2015-Mar-31 01:20 260 13 gusting 23 5.4 3.0
2015-Mar-31 00:50 270 13 5.4 3.0
2015-Mar-31 00:20 260 13 5.4 3.0
2015-Mar-30 23:50 260 10 5.4 4.0
2015-Mar-30 23:20 260 8 5.4 3.0
2015-Mar-30 22:50 270 10 5.4 3.0
2015-Mar-30 22:20 270 12 5.4 3.0
2015-Mar-30 21:50 260 11 5.4 3.0
2015-Mar-30 21:20 270 11 5.4 3.0
2015-Mar-30 20:50 260 10 5.4 4.0
2015-Mar-30 20:20 280 9 5.4 4.0
2015-Mar-30 19:50 280 10 5.4 4.0
2015-Mar-30 19:20 300 9 5.4 4.0 Light rain.
2015-Mar-30 18:50 300 11 3.2 4.0 Light drizzle.
2015-Mar-30 18:20 290 11 5.4 4.0
2015-Mar-30 17:50 300 13 5.4 4.0
2015-Mar-30 17:20 300 14 2.7 4.0 Light drizzle.
2015-Mar-30 16:50 300 13 5.4 5.0
2015-Mar-30 16:20 320 12 3.2 4.0 Light drizzle.
2015-Mar-30 15:50 310 13 2.7 4.0 Rain.
2015-Mar-30 15:20 300 9 2.6 4.0 Rain.
2015-Mar-30 14:50 290 12 5.4 5.0 Light rain.
2015-Mar-30 14:20 300 13 5.4 5.0 Light rain.
2015-Mar-30 13:50 290 12 5.4 4.0 Light rain.
2015-Mar-30 13:20 300 11 4.3 5.0 Rain.
2015-Mar-30 12:50 300 11 5.4 5.0 Light rain.
2015-Mar-30 12:20 300 13 4.3 5.0 Light rain drizzle.
2015-Mar-30 11:50 300 10 4.3 5.0 Light rain.
2015-Mar-30 11:20 310 10 4.9 5.0 Light rain.
2015-Mar-30 10:50 310 11 3.2 5.0 Rain.
2015-Mar-30 10:20 310 10 3.8 4.0 Rain.
2015-Mar-30 09:50 300 11 3.8 4.0 Rain.
2015-Mar-30 09:20 320 10 3.8 3.0 Rain.
2015-Mar-30 08:50 320 9 3.2 3.0 Rain.
2015-Mar-30 08:20 330 10 2.7 3.0 Rain snow.
2015-Mar-30 07:50 350 10 3.8 3.0 Rain snow.
2015-Mar-30 07:20 340 11 3.8 3.0 Rain snow.
2015-Mar-30 06:50 360 12 3.2 3.0 Rain.
2015-Mar-30 06:20 010 11 2.5 3.0 Rain.
2015-Mar-30 05:50 020 11 2.7 3.0 Rain.
2015-Mar-30 05:20 020 8 2.7 4.0 Rain.
2015-Mar-30 04:50 010 7 2.2 4.0 Rain.
2015-Mar-30 04:20 010 6 2.2 4.0 Light rain.
2015-Mar-30 03:50 030 5 2.3 4.0 Light rain.
2015-Mar-30 03:20 030 5 2.0 4.0 Light rain.
2015-Mar-30 02:50 030 6 2.3 4.0 Light rain.
2015-Mar-30 02:20 040 4 1.8 4.0 Light rain.
2015-Mar-30 01:50 080 3 1.7 4.0 Light rain.
2015-Mar-30 01:20 100 4 2.0 4.0 Drizzle.
2015-Mar-30 00:50 100 3 2.1 5.0 Mist.
2015-Mar-30 00:20 120 3 2.7 5.0 Mist.
2015-Mar-29 23:50 130 4 3.8 5.0 Mist.
2015-Mar-29 23:20 130 3 4.9 5.0 Mist.
2015-Mar-29 22:50 160 4 5.4 5.0
2015-Mar-29 22:21 170 6 5.4 5.0
2015-Mar-29 21:51 170 7 5.4 5.0
2015-Mar-29 21:20 160 6 5.4 5.0
2015-Mar-29 20:50 160 5 5.4 5.0
2015-Mar-29 20:20 170 5 5.4 5.0
2015-Mar-29 19:50 170 5 5.4 5.0 Drizzle.
2015-Mar-29 19:20 170 6 5.4 6.0
2015-Mar-29 18:50 170 6 5.4 6.0
2015-Mar-29 18:20 160 6 5.4 6.0
2015-Mar-29 17:50 170 6 5.4 6.0 Light rain.
2015-Mar-29 17:20 180 7 4.3 6.0 Light rain.
2015-Mar-29 16:50 170 8 5.4 6.0 Light drizzle.
2015-Mar-29 16:23 170 6 5.4 7.0 Light rain.
2015-Mar-29 16:20 180 6 5.4 7.0 Light rain.
2015-Mar-29 15:50 200 8 5.4 7.0 Light rain.
2015-Mar-29 15:20 210 10 5.4 8.0
2015-Mar-29 14:50 210 12 5.4 8.0
2015-Mar-29 14:20 220 9 5.4 8.0
2015-Mar-29 13:50 220 8 5.4 8.0
2015-Mar-29 13:20 230 9 5.4 8.0
2015-Mar-29 12:50 230 8 5.4 8.0
2015-Mar-29 12:20 230 7 5.4 7.0
2015-Mar-29 11:50 250 9 5.4 7.0
2015-Mar-29 11:20 210 8 5.4 7.0 Light rain.
2015-Mar-29 10:50 190 11 5.4 6.0 Light rain.
2015-Mar-29 10:20 150 10 5.4 5.0 Light rain.
2015-Mar-29 09:50 150 10 2.7 5.0 Light rain.
2015-Mar-29 09:20 150 10 3.2 4.0 Light rain.
2015-Mar-29 08:50 150 10 2.7 4.0 Light rain.
2015-Mar-29 08:20 140 10 3.2 4.0 Light rain.
2015-Mar-29 07:50 150 10 2.7 4.0 Light rain.
2015-Mar-29 07:20 150 12 2.7 4.0 Light rain.
2015-Mar-29 06:50 150 10 2.7 4.0 Rain.
2015-Mar-29 06:20 160 10 2.4 4.0 Light rain.
2015-Mar-29 05:50 160 12 2.2 4.0 Light rain.
2015-Mar-29 05:20 150 12 2.2 4.0 Light rain.